Location: Morisset
(33.1080°S, 151.4871°E)
Time: 08:48:42
(UTC+00:00)

OAO 3 Rocket - Pass Details

Date: 29 October 2020
Orbit: 629 x 682 km, 35.0° (Epoch: 27 November)

Event Time Altitude Azimuth Distance (km) Brightness Sun altitude
Exits shadow 17:36:18 21° 259° (WSW) 1,457 4.5 -16.3°
Maximum altitude 17:39:28 69° 178° (S) 696 3.4 -15.7°
Drops below altitude 10° 17:44:17 10° 94° (E) 2,071 6.8 -14.9°
Sets 17:46:41 0° 91° (E) 2,991 7.8 -14.4°
